Flag for U.S.A. Weather past 2 weeks in Mesquite, Texas, U.S.A.

Now
73 °F

Passing clouds.


Feels Like: 70 °F
Forecast: 70 / 83 °F
Wind: 5 mph from Southeast

Location: Mesquite Metro Airport

Current Time: May 28, 2015 at 2:16:10 AM

Latest Report: May 28, 2015 at 1:55 AM


Visibility: 10 mi

Pressure: 30.04 "Hg

Humidity: 94%

Dew point: 72 °F

Location of MesquiteLocation

Historic Weather in Mesquite — Graph

°F

Mesquite temperature yesterday

Maximum temperature yesterday: 84 °F (at 3:50 PM)
Minimum temperature yesterday: 63 °F (at 6:50 AM)
Average temperature yesterday: 72 °F

Past Weeks' High & Low Weather Summary

 TemperatureHumidityPressure
High88 °F (May 18, 2:50 PM)100% (May 14, 6:50 AM)30.22 "Hg (May 14, 6:50 AM)
Low36 °F (May 17, 12:50 PM)43% (May 18, 5:50 PM)29.76 "Hg (May 16, 8:15 PM)
Average70 °F89%30.00 "Hg
* Reported May 13 1:15 AM — May 28 1:15 AM, Mesquite, Weather by CustomWeather, © 2015

Note: Actual official high and low records may vary slightly from our data, if they occured in-between our weather recording intervals... More about our weather records

Advertising

Mesquite weather history for previous 24 hours

 ConditionsComfort  
Time TempWeatherWind HumidityBarometerVisibility
1:15 AM
Thu, May 28
74 °FPassing clouds.3 mph92%30.05 "Hg10 mi
12:55 AM74 °FPassing clouds.5 mph92%30.05 "Hg10 mi
12:35 AM73 °FClear.5 mph93%30.05 "Hg10 mi
12:15 AM74 °FClear.3 mph91%30.05 "Hg10 mi
11:55 PM
Wed, May 27
74 °FClear.3 mph91%30.05 "Hg10 mi
11:35 PM74 °FClear.5 mph92%30.05 "Hg10 mi
11:15 PM75 °FClear.No wind89%30.03 "Hg10 mi
10:15 PM75 °FPassing clouds.8 mph89%30.03 "Hg10 mi
9:55 PM76 °FClear.9 mph87%30.04 "Hg10 mi
9:35 PM76 °FPassing clouds.7 mph84%30.04 "Hg10 mi
9:15 PM76 °FScattered clouds.5 mph88%30.03 "Hg10 mi
8:55 PM77 °FSunny.3 mph85%30.01 "Hg10 mi
8:35 PM77 °FScattered clouds.3 mph85%30.01 "Hg10 mi
8:15 PM78 °FBroken clouds.5 mph82%30.01 "Hg10 mi
7:50 PM79 °FCloudy.7 mph79%30.03 "Hg10 mi
6:50 PM82 °FScattered clouds.5 mph70%30.00 "Hg10 mi
5:50 PM82 °FScattered clouds.6 mph66%30.02 "Hg10 mi
4:50 PM84 °FScattered clouds.7 mph62%30.03 "Hg10 mi
3:50 PM84 °FThunderstorms. Cloudy.2 mph55%30.04 "HgN/A
2:50 PM82 °FThunderstorms. Cloudy.2 mph58%30.06 "HgN/A
1:50 PM81 °FOvercast.6 mph58%30.09 "Hg10 mi
12:50 PM81 °FPartly sunny.5 mph58%30.10 "Hg10 mi
11:50 AM79 °FSunny.7 mph61%30.11 "Hg10 mi
10:50 AM73 °FSunny.5 mph69%30.11 "Hg10 mi
9:50 AM72 °FSunny.5 mph73%30.11 "Hg10 mi
7:50 AM64 °FSunny.5 mph94%30.05 "Hg10 mi
6:50 AM63 °FClear.No wind94%30.00 "Hg10 mi
6:15 AM63 °FClear.No wind93%29.99 "Hg10 mi
5:55 AM63 °FClear.No wind90%29.99 "Hg10 mi
5:35 AM64 °FClear.7 mph86%29.98 "Hg10 mi
5:15 AM64 °FClear.3 mph87%29.97 "Hg10 mi
4:55 AM66 °FClear.7 mph81%29.96 "Hg10 mi
4:15 AM65 °FClear.13 mph88%29.99 "Hg10 mi
3:55 AM65 °FClear.16 mph89%29.99 "Hg10 mi
3:35 AM66 °FClear.14 mph81%29.98 "Hg10 mi
3:15 AM66 °FPassing clouds.22 mph80%29.97 "Hg10 mi
2:55 AM66 °FPartly cloudy.28 mph83%29.94 "Hg10 mi
2:35 AM65 °FOvercast.23 mph90%30.00 "Hg7 mi
2:15 AM65 °FMostly cloudy.22 mph92%30.02 "Hg7 mi
Weather by CustomWeather, © 2015

See weather overviewHow to use our weather pages